Weather History for York, NE

Change the Weather History Date:

Tuesday, March 18, 2014

  Actual Average Record
Temperature  
Mean Temperature 42 °F -  
Max Temperature 51 °F 50 °F 80 °F (2012)
Min Temperature 32 °F 29 °F 3 °F (1965)
Degree Days  
Heating Degree Days 24    
Moisture  
Dew Point 28 °F    
Average Humidity 64    
Maximum Humidity 100    
Minimum Humidity 41    
Precipitation  
Precipitation 0.00 in - - ()
Sea Level Pressure  
Sea Level Pressure 29.51 in    
Wind  
Wind Speed 14 mph (NNE)    
Max Wind Speed 33 mph    
Max Gust Speed 46 mph    
Visibility 7 miles    
Events Rain , Snow    
Averages and records for this station are not official NWS values.
T = Trace of Precipitation, MM = Missing Value Source: NWS Daily Summary

Daily Weather History Graph

Daily Weather History Graph

Search for Another Location

Airport:

Trip Planner

Search our weather history database for the weather conditions in past years. The results will help you decide how hot, cold, wet, or windy it might be!

Date:

Astronomy

Mar. 18, 2014 Rise Set
Actual Time 7:37 AM CDT 7:40 PM CDT
Civil Twilight 7:09 AM CDT 8:07 PM CDT
Nautical Twilight 6:37 AM CDT 8:39 PM CDT
Astronomical Twilight 6:05 AM CDT 9:12 PM CDT
Moon 10:00 PM CDT (3/18) 8:26 AM CDT (3/18)
Length of Visible Light 12h 58m
Length of Day
12h 03m
Waning Gibbous, 96% of the Moon is Illuminated
Mar 18
Waning Gibbous
Mar 23
Last Quarter
Mar 30
New
Apr 7
First Quarter
Apr 15
Full

Hourly Weather History & Observations

Time (CDT) Temp. Windchill Dew Point Humidity Pressure Visibility Wind Dir Wind Speed Gust Speed Precip Events Conditions
12:15 AM 46.4 °F 39.2 °F 28.4 °F 50% 29.38 in 10.0 mi South 18.4 mph 27.6 mph N/A   Clear
12:35 AM 46.4 °F 39.2 °F 28.4 °F 50% 29.37 in 10.0 mi South 18.4 mph 27.6 mph N/A   Clear
12:55 AM 46.4 °F 39.8 °F 28.4 °F 50% 29.39 in 10.0 mi South 16.1 mph 25.3 mph N/A   Clear
1:15 AM 46.4 °F 40.1 °F 28.4 °F 50% 29.39 in 10.0 mi South 15.0 mph 23.0 mph N/A   Clear
1:35 AM 46.4 °F 40.4 °F 28.4 °F 50% 29.39 in 10.0 mi South 13.8 mph - N/A   Clear
1:55 AM 44.6 °F 37.4 °F 26.6 °F 49% 29.39 in 10.0 mi SSE 16.1 mph - N/A   Clear
2:15 AM 44.6 °F 37.8 °F 26.6 °F 49% 29.39 in 10.0 mi South 15.0 mph 20.7 mph N/A   Clear
2:35 AM 42.8 °F 36.2 °F 26.6 °F 53% 29.38 in 10.0 mi SSE 12.7 mph 18.4 mph N/A   Clear
2:55 AM 41.0 °F 33.9 °F 26.6 °F 57% 29.37 in 10.0 mi SSE 12.7 mph 18.4 mph N/A   Clear
3:15 AM 41.0 °F 33.9 °F 26.6 °F 57% 29.37 in 10.0 mi SSE 12.7 mph 17.3 mph N/A   Clear
3:35 AM 41.0 °F 34.3 °F 26.6 °F 57% 29.37 in 10.0 mi SSE 11.5 mph 20.7 mph N/A   Clear
3:55 AM 41.0 °F 36.4 °F 26.6 °F 57% 29.37 in 10.0 mi South 6.9 mph - N/A   Clear
4:15 AM 39.2 °F - 26.6 °F 61% 29.37 in 10.0 mi Calm Calm - N/A   Clear
4:35 AM 39.2 °F 34.2 °F 26.6 °F 61% 29.37 in 10.0 mi SE 6.9 mph - N/A   Clear
4:55 AM 39.2 °F 33.0 °F 26.6 °F 61% 29.36 in 10.0 mi SE 9.2 mph - N/A   Scattered Clouds
5:15 AM 39.2 °F 33.0 °F 26.6 °F 61% 29.36 in 10.0 mi SE 9.2 mph - N/A   Mostly Cloudy
5:35 AM 39.2 °F 33.0 °F 26.6 °F 61% 29.36 in 10.0 mi SE 9.2 mph - N/A   Scattered Clouds
5:55 AM 37.4 °F 31.4 °F 26.6 °F 65% 29.37 in 10.0 mi SE 8.1 mph - N/A   Clear
6:15 AM 35.6 °F 29.2 °F 26.6 °F 70% 29.36 in 10.0 mi SE 8.1 mph - N/A   Clear
6:35 AM 35.6 °F 29.9 °F 26.6 °F 70% 29.37 in 10.0 mi ESE 6.9 mph - N/A   Clear
6:55 AM 32.0 °F 25.6 °F 24.8 °F 75% 29.38 in 10.0 mi East 6.9 mph - N/A   Clear
7:15 AM 32.0 °F 26.4 °F 24.8 °F 75% 29.37 in 10.0 mi East 5.8 mph - N/A   Clear
7:35 AM 32.0 °F 26.4 °F 24.8 °F 75% 29.37 in 10.0 mi East 5.8 mph - N/A   Clear
7:55 AM 33.8 °F 27.0 °F 26.6 °F 75% 29.38 in 10.0 mi ESE 8.1 mph - N/A   Clear
8:15 AM 35.6 °F 29.9 °F 26.6 °F 70% 29.39 in 10.0 mi ESE 6.9 mph - N/A   Clear
8:35 AM 37.4 °F 30.8 °F 26.6 °F 65% 29.39 in 10.0 mi ESE 9.2 mph - N/A   Clear
8:55 AM 37.4 °F 30.8 °F 26.6 °F 65% 29.39 in 10.0 mi SE 9.2 mph - N/A   Clear
9:15 AM 41.0 °F 34.7 °F 26.6 °F 57% 29.38 in 10.0 mi SE 10.4 mph - N/A   Clear
9:35 AM 42.8 °F 36.6 °F 26.6 °F 53% 29.39 in 10.0 mi SSE 11.5 mph - N/A   Clear
9:55 AM 41.0 °F 34.7 °F 26.6 °F 57% 29.40 in 10.0 mi SSE 10.4 mph - N/A   Clear
10:15 AM 41.0 °F 36.4 °F 26.6 °F 57% 29.41 in 10.0 mi South 6.9 mph - N/A   Clear
10:35 AM 44.6 °F 40.2 °F 28.4 °F 53% 29.41 in 10.0 mi South 8.1 mph - N/A   Clear
10:55 AM 46.4 °F 42.4 °F 28.4 °F 50% 29.41 in 10.0 mi SSW 8.1 mph - N/A   Clear
11:15 AM 46.4 °F 44.3 °F 26.6 °F 46% 29.41 in 10.0 mi West 4.6 mph - N/A   Clear
11:35 AM 46.4 °F - 28.4 °F 50% 29.42 in 10.0 mi Calm Calm - N/A   Clear
11:55 AM 46.4 °F 44.3 °F 28.4 °F 50% 29.43 in 10.0 mi NW 4.6 mph - N/A   Clear
12:15 PM 48.2 °F - 28.4 °F 46% 29.43 in 10.0 mi NNW 4.6 mph - N/A   Clear
12:35 PM 50.0 °F - 28.4 °F 43% 29.43 in 10.0 mi NNW 11.5 mph 17.3 mph N/A   Clear
12:55 PM 50.0 °F - 28.4 °F 43% 29.43 in 10.0 mi NNW 13.8 mph 19.6 mph N/A   Clear
1:15 PM 50.0 °F - 28.4 °F 43% 29.44 in 10.0 mi NW 16.1 mph 20.7 mph N/A   Clear
1:35 PM 50.0 °F - 28.4 °F 43% 29.45 in 7.0 mi NNW 9.2 mph 17.3 mph N/A   Clear
1:55 PM 50.0 °F - 28.4 °F 43% 29.46 in 8.0 mi North 13.8 mph 21.9 mph N/A   Scattered Clouds
2:15 PM 50.0 °F - 28.4 °F 43% 29.47 in 10.0 mi NNW 11.5 mph 18.4 mph N/A   Mostly Cloudy
2:35 PM 50.0 °F - 28.4 °F 43% 29.47 in 10.0 mi NNW 15.0 mph 18.4 mph N/A   Overcast
2:55 PM 50.0 °F - 28.4 °F 43% 29.47 in 7.0 mi North 16.1 mph 28.8 mph N/A   Mostly Cloudy
3:15 PM 50.0 °F - 28.4 °F 43% 29.47 in 10.0 mi North 15.0 mph 25.3 mph N/A   Mostly Cloudy
3:35 PM 51.8 °F - 28.4 °F 41% 29.47 in 3.0 mi North 25.3 mph 31.1 mph N/A   Haze
3:55 PM 50.0 °F - 28.4 °F 43% 29.49 in 2.0 mi North 23.0 mph 34.5 mph N/A   Haze
4:15 PM 48.2 °F - 30.2 °F 50% 29.51 in 1.0 mi North 33.4 mph 46.0 mph N/A   Haze
4:35 PM 46.4 °F 37.2 °F 30.2 °F 53% 29.53 in 3.0 mi North 29.9 mph 42.6 mph N/A   Haze
4:55 PM 44.6 °F 34.9 °F 30.2 °F 57% 29.54 in 3.0 mi North 28.8 mph 39.1 mph N/A   Haze
5:15 PM 42.8 °F 32.1 °F 30.2 °F 61% 29.56 in 2.5 mi North 31.1 mph 43.7 mph N/A   Haze
5:35 PM 41.0 °F 30.0 °F 30.2 °F 65% 29.57 in 5.0 mi North 28.8 mph 40.3 mph N/A   Haze
5:55 PM 39.2 °F 28.7 °F 28.4 °F 65% 29.59 in 7.0 mi North 23.0 mph 38.0 mph N/A   Overcast
6:15 PM 39.2 °F 28.7 °F 28.4 °F 65% 29.62 in 10.0 mi North 23.0 mph 35.7 mph N/A   Overcast
6:35 PM 37.4 °F 27.2 °F 28.4 °F 70% 29.63 in 10.0 mi North 19.6 mph 35.7 mph N/A   Mostly Cloudy
6:55 PM 35.6 °F 24.2 °F 28.4 °F 75% 29.65 in 10.0 mi NNW 21.9 mph 29.9 mph N/A   Scattered Clouds
7:15 PM 33.8 °F 23.5 °F 28.4 °F 81% 29.68 in 5.0 mi North 16.1 mph 36.8 mph N/A Snow Light Snow
7:35 PM 32.0 °F 19.2 °F 28.4 °F 87% 29.70 in 1.0 mi North 23.0 mph 29.9 mph N/A Snow Light Snow
7:55 PM 32.0 °F 21.2 °F 30.2 °F 93% 29.72 in 0.8 mi North 16.1 mph 25.3 mph N/A Snow Light Snow
8:15 PM 32.0 °F 20.5 °F 32.0 °F 100% 29.74 in 0.8 mi North 18.4 mph 25.3 mph N/A Snow Light Snow
8:35 PM 32.0 °F 21.6 °F 32.0 °F 100% 29.77 in 1.2 mi North 15.0 mph 21.9 mph N/A Snow Light Snow
8:55 PM 32.0 °F 20.1 °F 32.0 °F 100% 29.78 in 1.0 mi North 19.6 mph 27.6 mph N/A Snow Light Snow
9:15 PM 32.0 °F 19.5 °F 32.0 °F 100% 29.79 in 1.0 mi North 21.9 mph 26.5 mph N/A Snow Light Snow
9:35 PM 32.0 °F 19.8 °F 32.0 °F 100% 29.81 in 1.2 mi North 20.7 mph 34.5 mph N/A Snow Light Snow
9:55 PM 32.0 °F 22.1 °F 32.0 °F 100% 29.82 in 1.0 mi NNW 13.8 mph 20.7 mph N/A Snow Light Snow
10:15 PM 32.0 °F 20.8 °F 32.0 °F 100% 29.83 in 2.0 mi NNW 17.3 mph - N/A Snow Light Snow
10:35 PM 32.0 °F 21.6 °F 32.0 °F 100% 29.84 in 2.0 mi NNW 15.0 mph - N/A Snow Light Snow
10:55 PM 32.0 °F 20.8 °F 32.0 °F 100% 29.84 in 1.5 mi NNW 17.3 mph 24.2 mph N/A Snow Light Snow
11:15 PM 32.0 °F 20.1 °F 32.0 °F 100% 29.85 in 1.5 mi NNW 19.6 mph 24.2 mph N/A Snow Light Snow
11:35 PM 32.0 °F 19.8 °F 32.0 °F 100% 29.86 in 2.0 mi NNW 20.7 mph - N/A   Unknown
11:55 PM 32.0 °F 20.1 °F 30.2 °F 93% 29.87 in 4.0 mi NNW 19.6 mph 26.5 mph N/A Rain Light Rain